| time (UTC) | temp C | wind direction | speed KPH | gust KPH | rain 1hr cm | rain 24hr cm | rain mn cm | humidity % | barometer mb |
| 20260505124346 | 2 | 315 | 3.2 | 9.7 | 0.00 | 0.10 | 0.05 | 91 | 1023.8 |
| 20260505123324 | 2 | 317 | 3.2 | 14.5 | 0.00 | 0.10 | 0.05 | 91 | 1023.8 |
| 20260505122338 | 3 | 350 | 6.4 | 14.5 | 0.00 | 0.10 | 0.05 | 91 | 1023.4 |
| 20260505121352 | 3 | 330 | 4.8 | 12.9 | 0.00 | 0.10 | 0.05 | 91 | 1023.6 |
| 20260505120402 | 3 | 327 | 4.8 | 12.9 | 0.00 | 0.10 | 0.05 | 90 | 1023.6 |
| 20260505115416 | 3 | 346 | 3.2 | 12.9 | 0.00 | 0.10 | 0.05 | 88 | 1023.1 |
| 20260505114435 | 3 | 219 | 6.4 | 12.9 | 0.00 | 0.10 | 0.05 | 88 | 1023.1 |
| 20260505113429 | 3 | 209 | 6.4 | 14.5 | 0.00 | 0.10 | 0.05 | 89 | 1022.9 |
| 20260505112440 | 3 | 191 | 6.4 | 14.5 | 0.00 | 0.10 | 0.05 | 89 | 1022.8 |
| 20260505111446 | 3 | 189 | 6.4 | 14.5 | 0.00 | 0.10 | 0.05 | 90 | 1022.8 |
| 20260505110416 | 3 | 198 | 6.4 | 14.5 | 0.00 | 0.10 | 0.05 | 92 | 1022.7 |
| 20260505101234 | 3 | 177 | 6.4 | 16.1 | 0.00 | 0.10 | 0.05 | 91 | 1022.0 |
| 20260505093938 | 3 | 184 | 3.2 | 9.7 | 0.00 | 0.10 | 0.05 | 93 | 1022.2 |
| 20260505092955 | 3 | 142 | 1.6 | 8.0 | 0.00 | 0.10 | 0.05 | 93 | 1022.2 |
| 20260505091943 | 4 | 165 | 3.2 | 8.0 | 0.00 | 0.10 | 0.05 | 93 | 1022.4 |
| 20260505090957 | 4 | 140 | 3.2 | 9.7 | 0.00 | 0.10 | 0.05 | 92 | 1022.4 |
| 20260505090000 | 4 | 134 | 3.2 | 9.7 | 0.00 | 0.10 | 0.05 | 93 | 1022.4 |
| 20260505085015 | 4 | 161 | 1.6 | 3.2 | 0.00 | 0.10 | 0.05 | 93 | 1022.6 |
| 20260505083947 | 4 | 155 | 0.0 | 3.2 | 0.00 | 0.10 | 0.05 | 93 | 1023.0 |
| 20260505081903 | 5 | 355 | 0.0 | 4.8 | 0.00 | 0.10 | 0.05 | 93 | 1023.1 |
| 20260505080853 | 5 | 350 | 1.6 | 6.4 | 0.00 | 0.10 | 0.05 | 93 | 1023.1 |
| 20260505075844 | 5 | 314 | 1.6 | 6.4 | 0.00 | 0.10 | 0.05 | 93 | 1023.3 |
| 20260505074846 | 5 | 329 | 1.6 | 8.0 | 0.00 | 0.10 | 0.05 | 93 | 1023.3 |
| 20260505073842 | 5 | 336 | 3.2 | 8.0 | 0.00 | 0.10 | 0.05 | 92 | 1023.3 |
| 20260505072808 | 5 | 336 | 3.2 | 6.4 | 0.00 | 0.10 | 0.05 | 92 | 1023.0 |
| 20260505071733 | 5 | 43 | 1.6 | 11.3 | 0.00 | 0.10 | 0.05 | 92 | 1023.0 |
| 20260505070744 | 5 | 49 | 4.8 | 11.3 | 0.00 | 0.10 | 0.05 | 92 | 1023.3 |
| 20260505065741 | 5 | 336 | 3.2 | 9.7 | 0.00 | 0.10 | 0.05 | 92 | 1023.3 |
| 20260505064731 | 5 | 346 | 3.2 | 8.0 | 0.00 | 0.10 | 0.05 | 92 | 1023.3 |
| 20260505063704 | 5 | 11 | 1.6 | 6.4 | 0.00 | 0.10 | 0.05 | 91 | 1023.3 |
| 20260505055713 | 5 | 24 | 3.2 | 11.3 | 0.00 | 0.05 | 0.05 | 91 | 1023.6 |
| 20260505054719 | 5 | 31 | 4.8 | 11.3 | 0.00 | 0.05 | 0.05 | 90 | 1023.6 |
| 20260505053705 | 5 | 5 | 4.8 | 9.7 | 0.00 | 0.05 | 0.05 | 90 | 1023.6 |
| 20260505051555 | 5 | 351 | 4.8 | 14.5 | 0.00 | 0.05 | 0.05 | 90 | 1023.4 |
| 20260505050607 | 5 | 355 | 8.0 | 14.5 | 0.00 | 0.05 | 0.05 | 89 | 1023.1 |
| 20260505040425 | 5 | 349 | 8.0 | 17.7 | 0.00 | 0.05 | 0.05 | 85 | 1022.2 |
| 20260505035427 | 5 | 30 | 8.0 | 17.7 | 0.00 | 0.05 | 0.05 | 86 | 1022.1 |
| 20260505033242 | 5 | 355 | 3.2 | 11.3 | 0.00 | 0.03 | 0.03 | 85 | 1022.6 |
| 20260505032216 | 5 | 26 | 4.8 | 12.9 | 0.00 | 0.03 | 0.03 | 84 | 1022.2 |
| 20260505031143 | 6 | 27 | 4.8 | 12.9 | 0.00 | 0.03 | 0.03 | 84 | 1022.5 |
| 20260505030149 | 6 | 0 | 4.8 | 11.3 | 0.00 | 0.03 | 0.03 | 83 | 1022.5 |
| 20260505022946 | 6 | 5 | 6.4 | 14.5 | 0.00 | 0.03 | 0.03 | 79 | 1022.0 |
| 20260505020751 | 6 | 38 | 4.8 | 12.9 | 0.00 | 0.03 | 0.03 | 78 | 1022.0 |
| 20260505015741 | 6 | 9 | 4.8 | 11.3 | 0.00 | 0.03 | 0.03 | 78 | 1021.9 |
| 20260505014735 | 6 | 17 | 4.8 | 16.1 | 0.00 | 0.03 | 0.03 | 77 | 1021.9 |
| 20260505013733 | 7 | 5 | 8.0 | 35.4 | 0.00 | 0.03 | 0.03 | 75 | 1021.9 |
| 20260505012706 | 8 | 0 | 16.1 | 35.4 | 0.00 | 0.00 | 0.00 | 67 | 1021.6 |
| 20260505011728 | 9 | 327 | 6.4 | 24.1 | 0.00 | 0.00 | 0.00 | 55 | 1021.6 |
| 20260505005611 | 9 | 319 | 12.9 | 25.7 | 0.00 | 0.00 | 0.00 | 54 | 1020.5 |
| 20260505004615 | 10 | 329 | 12.9 | 29.0 | 0.00 | 0.00 | 0.00 | 52 | 1020.5 |
| 20260505003632 | 10 | 0 | 16.1 | 29.0 | 0.00 | 0.00 | 0.00 | 49 | 1020.3 |
| 20260505002632 | 10 | 36 | 17.7 | 29.0 | 0.00 | 0.00 | 0.00 | 47 | 1020.2 |
| 20260505000547 | 11 | 28 | 16.1 | 35.4 | 0.00 | 0.00 | 0.00 | 43 | 1019.8 |
| 20260504235552 | 11 | 355 | 20.9 | 35.4 | 0.00 | 0.00 | 0.00 | 43 | 1019.7 |
| 20260504233410 | 12 | 11 | 14.5 | 30.6 | 0.00 | 0.00 | 0.00 | 40 | 1020.2 |
| 20260504231244 | 12 | 19 | 8.0 | 20.9 | 0.00 | 0.00 | 0.00 | 43 | 1020.1 |
| 20260504230210 | 11 | 49 | 6.4 | 25.7 | 0.00 | 0.00 | 0.00 | 42 | 1020.1 |
| 20260504225221 | 11 | 51 | 11.3 | 35.4 | 0.00 | 0.00 | 0.00 | 48 | 1020.1 |
| 20260504224246 | 12 | 33 | 12.9 | 35.4 | 0.00 | 0.00 | 0.00 | 44 | 1019.5 |
| 20260504222107 | 14 | 114 | 4.8 | 27.4 | 0.00 | 0.00 | 0.00 | 31 | 1019.5 |
| 20260504221108 | 14 | 93 | 8.0 | 27.4 | 0.00 | 0.00 | 0.00 | 32 | 1018.9 |
| 20260504220128 | 15 | 98 | 9.7 | 27.4 | 0.00 | 0.00 | 0.00 | 31 | 1018.9 |
| 20260504215148 | 15 | 75 | 6.4 | 22.5 | 0.00 | 0.00 | 0.00 | 29 | 1019.0 |
| 20260504214132 | 15 | 83 | 6.4 | 19.3 | 0.00 | 0.00 | 0.00 | 30 | 1019.0 |
| 20260504213110 | 15 | 53 | 4.8 | 29.0 | 0.00 | 0.00 | 0.00 | 29 | 1019.0 |
| 20260504212127 | 15 | 11 | 11.3 | 29.0 | 0.00 | 0.00 | 0.00 | 27 | 1018.9 |
| 20260504211147 | 16 | 28 | 12.9 | 24.1 | 0.00 | 0.00 | 0.00 | 27 | 1019.3 |
| 20260504210118 | 15 | 355 | 14.5 | 25.7 | 0.00 | 0.00 | 0.00 | 28 | 1019.3 |
| 20260504205113 | 15 | 0 | 16.1 | 27.4 | 0.00 | 0.00 | 0.00 | 27 | 1019.6 |
| 20260504204135 | 15 | 355 | 19.3 | 30.6 | 0.00 | 0.00 | 0.00 | 29 | 1019.6 |
| 20260504203128 | 16 | 344 | 22.5 | 40.2 | 0.00 | 0.00 | 0.00 | 29 | 1019.6 |
| 20260504201035 | 16 | 213 | 8.0 | 38.6 | 0.00 | 0.00 | 0.00 | 27 | 1019.7 |
| 20260504194908 | 16 | 204 | 4.8 | 16.1 | 0.00 | 0.00 | 0.00 | 25 | 1019.7 |
| 20260504193834 | 16 | 180 | 4.8 | 16.1 | 0.00 | 0.00 | 0.00 | 25 | 1020.0 |
| 20260504192813 | 16 | 67 | 6.4 | 14.5 | 0.00 | 0.00 | 0.00 | 25 | 1020.1 |
| 20260504191834 | 16 | 57 | 1.6 | 9.7 | 0.00 | 0.00 | 0.00 | 25 | 1020.1 |
| 20260504190811 | 16 | 37 | 3.2 | 11.3 | 0.00 | 0.00 | 0.00 | 26 | 1020.1 |
| 20260504185807 | 16 | 24 | 4.8 | 16.1 | 0.00 | 0.00 | 0.00 | 25 | 1020.2 |
| 20260504184822 | 16 | 45 | 6.4 | 20.9 | 0.00 | 0.00 | 0.00 | 25 | 1020.2 |
| 20260504183817 | 15 | 36 | 9.7 | 20.9 | 0.00 | 0.00 | 0.00 | 27 | 1020.7 |
| 20260504182820 | 15 | 5 | 4.8 | 12.9 | 0.00 | 0.00 | 0.00 | 27 | 1020.8 |
| 20260504181802 | 15 | 266 | 1.6 | 11.3 | 0.00 | 0.00 | 0.00 | 26 | 1020.8 |
| 20260504180826 | 15 | 273 | 3.2 | 16.1 | 0.00 | 0.00 | 0.00 | 24 | 1020.8 |
| 20260504174631 | 16 | 60 | 6.4 | 16.1 | 0.00 | 0.00 | 0.00 | 24 | 1020.9 |
| 20260504173648 | 16 | 271 | 6.4 | 17.7 | 0.00 | 0.00 | 0.00 | 25 | 1021.5 |
| 20260504171429 | 15 | 234 | 12.9 | 29.0 | 0.00 | 0.00 | 0.00 | 31 | 1021.5 |
| 20260504170442 | 14 | 228 | 14.5 | 29.0 | 0.00 | 0.00 | 0.00 | 35 | 1021.6 |
| 20260504160255 | 14 | 280 | 20.9 | 33.8 | 0.00 | 0.00 | 0.00 | 33 | 1022.2 |